www.pogodaiklimat.ru

Погода и климат >> Архив погоды >> Новая Зеландия >> Тахароа


ПОГОДА в Тахароа

  • Прогноз погоды в Тахароа
  • Монитор погоды в Тахароа

АРХИВ ПОГОДЫ в Тахароа

Время (UTC), дата Ветер
(напр.,м/с)
 
Видим.   Явления Облачность Т
(С)
Тd
(С)
f
(%)
Тe
(С)
Тes
(С)
Комфортность P
(гПа)
Po
(гПа)
Тmin
(С)
Tmax
(С)
R
(мм)
R24
(мм)
S
(см)
12 12.07 З 7 н/о н/о +14.0 +11.2 83 +12 +12 1015.0 1012.1 +14.7 0.2
15 12.07 З 10 н/о н/о +14.0 +10.9 82 +11 +11 1015.5 1012.6
18 12.07 З 8 н/о н/о +14.1 +11.9 87 +12 +12 1015.2 1012.3
21 12.07 З 6 н/о н/о +14.4 +12.4 88 +12 +12 1016.7 1013.8
00 13.07 З 6 н/о н/о +15.9 +13.2 84 +15 +15 1016.9 1014.0 +13.0 2
03 13.07 СЗ 5 н/о н/о +16.1 +13.1 82 +15 +15 1015.3 1012.4
06 13.07 С 4 н/о н/о +14.3 +12.4 88 +13 +13 1014.6 1011.7
09 13.07 С 5 н/о н/о +14.4 +13.6 95 +13 +13 1013.8 1010.9
12 13.07 С 6 н/о н/о +15.2 +14.3 94 +13 +13 1011.7 1008.8 +16.8
15 13.07 С 9 н/о н/о +15.0 +12.9 87 +13 +13 1008.8 1005.9
18 13.07 С 9 н/о н/о +14.9 +11.9 82 +13 +13 1004.1 1001.2
21 13.07 С 10 н/о н/о +14.4 +12.9 91 +12 +12 1001.2 998.3
00 14.07 СЗ 7 н/о н/о +13.1 +11.7 91 +10 +10 1000.1 997.2 +12.7 13
03 14.07 СЗ 12 н/о н/о +12.7 +11.5 92 +9 +9 998.1 995.2
06 14.07 З 10 н/о н/о +13.1 +9.3 78 +10 +10 998.6 995.7 1
09 14.07 З 10 н/о н/о +13.7 +9.8 77 +11 +11 999.4 996.5
12 14.07 З 13 н/о н/о +12.1 +9.1 82 +8 +8 1000.2 997.3 +15.8 0.2
15 14.07 З 10 н/о н/о +13.0 +9.1 77 +10 +10 1001.4 998.5
18 14.07 З 9 н/о н/о +12.2 +8.1 76 +9 +9 1003.1 1000.2 0.8
21 14.07 З 5 н/о н/о +12.7 +7.9 73 +11 +11 1005.8 1002.9
00 15.07 СЗ 3 н/о н/о +15.3 +9.4 68 +15 +15 1006.7 1003.8 +10.7 2
03 15.07 СЗ 5 н/о н/о +14.8 +7.6 62 +13 +13 1005.3 1002.4
06 15.07 СВ 6 н/о н/о +13.0 +8.0 72 +11 +11 1004.3 1001.4
09 15.07 СВ 11 н/о н/о +12.3 +7.9 74 +9 +9 1002.5 999.6
12 15.07 СВ 10 н/о н/о +12.8 +9.4 80 +10 +10 999.9 997.0 +15.4 0.2
15 15.07 С 9 н/о н/о +13.0 +11.9 93 +10 +10 997.2 994.3
18 15.07 С 10 н/о н/о +12.9 +11.7 92 +10 +10 995.2 992.3 17
21 15.07 С 6 н/о н/о +13.1 +11.3 89 +11 +11 995.0 992.1
00 16.07 З 6 н/о н/о +14.1 +10.9 81 +12 +12 995.0 992.1 +11.4 20
03 16.07 З 9 н/о н/о +14.0 +9.5 74 +11 +11 994.4 991.5
06 16.07 З 9 н/о н/о +13.2 +9.4 78 +10 +10 995.1 992.2
09 16.07 З 9 н/о н/о +12.9 +7.6 70 +10 +10 995.6 992.7
12 16.07 СЗ 9 н/о н/о +13.7 +9.8 77 +11 +11 995.0 992.1 +15.4 0.6
15 16.07 З 11 н/о н/о +13.3 +9.4 77 +10 +10 993.8 990.9
18 16.07 З 12 н/о н/о +12.3 +8.8 79 +8 +8 994.6 991.7 2
21 16.07 З 13 н/о н/о +12.7 +8.1 74 +9 +9 996.5 993.6
00 17.07 З 8 н/о н/о +13.5 +9.2 75 +11 +11 998.0 995.1 +10.9 3
03 17.07 З 13 н/о н/о +14.0 +9.2 73 +11 +11 997.1 994.2
06 17.07 З 11 н/о н/о +12.5 +8.0 74 +9 +9 999.0 996.1 2
09 17.07 З 11 н/о н/о +12.7 +6.8 67 +9 +9 1001.5 998.6
12 17.07 З 11 н/о н/о +12.5 +7.6 72 +9 +9 1003.5 1000.6 +14.5 0.2
15 17.07 З 12 н/о н/о +11.5 +7.5 76 +7 +7 1005.0 1002.1
18 17.07 З 7 н/о н/о +12.3 +7.8 74 +10 +10 1006.4 1003.5 1
21 17.07 З 7 н/о н/о +12.4 +7.9 74 +10 +10 1008.4 1005.5
00 18.07 З 5 н/о н/о +15.3 +8.6 64 +14 +14 1009.1 1006.2 +8.8 3
03 18.07 С 2 н/о н/о +13.2 +8.8 75 +13 +13 1008.2 1005.3
06 18.07 СВ 4 н/о н/о +11.7 +10.2 91 +9 +9 1008.9 1006.0
09 18.07 В 5 н/о н/о +10.3 +9.4 94 +7 +7 1009.0 1006.1
12 18.07 СВ 6 н/о н/о +11.8 +10.0 89 +9 +9 1008.1 1005.2 +15.5
15 18.07 СВ 6 н/о н/о +11.3 +9.5 89 +8 +8 1006.4 1003.5
18 18.07 В 7 н/о н/о +11.8 +9.2 84 +9 +9 1003.9 1001.0
21 18.07 СВ 9 н/о н/о +13.7 +10.0 78 +11 +11 1002.2 999.3
00 19.07 СВ 9 н/о н/о +14.0 +11.4 84 +11 +11 999.7 996.8 +10.1
03 19.07 СЗ 8 н/о н/о +13.2 +12.2 94 +10 +10 998.1 995.2
06 19.07 З 8 н/о н/о +11.6 +10.6 94 +8 +8 999.2 996.3 9
09 19.07 С 2 н/о н/о +12.1 +11.2 94 +11 +11 999.8 996.9

 

Местоположение метеостанции Тахароа (Новая Зеландия): широта -38.17 долгота 174.71 высота над уровнем моря 28 м.

В архиве по умолчанию представлена погода в Тахароа за последнюю неделю. Архивные данные за месяц целиком и за предыдущие месяцы, начиная с января 2011 года, Вы можете получить, выбрав интересующий диапазон дат из раскрывающегося списка и нажав кнопку "Ввод!".


*Определитесь, кто Вы:
робот инопланетянин человек

Внимание! Время в таблицах - всемирное. Для получения местного времени необходимо прибавить поправку, которая равна 12 ч.

Смотрите также архив погоды в соседних городах и на ближайших метеорологических станциях:

Погода в Нью-Плимуте (Новая Зеландия) (104 км)
Погода в Окленде (Новая Зеландия) (130 км)
Погода на Таупо (Новая Зеландия) (133 км)
Погода в Тауранге (Новая Зеландия) (143 км)
Погода на Уэйауру (Новая Зеландия) (162 км)
Погода в Нейпире (Новая Зеландия) (234 км)
Погода в Пальмерстон-Норте (Новая Зеландия) (250 км)
Погода на Мокохинау (Новая Зеландия) (255 км)
Погода в Гисборне (Новая Зеландия) (290 км)
Погода на Косе Farewell (Новая Зеландия) (303 км)

Пояснения к столбцам:

Ветер - указаны скорость ветра в м/с - средняя за 10 мин, порывы в срок и между сроками (в фигурных скобках) и направление, откуда дует ветер: С - северный, СВ - северо-восточный, В - восточный, ЮВ - юго-восточный, Ю - южный, ЮЗ - юго-западный, З - западный, СЗ - северо-западный.
Видимость - горизонтальная дальность видимости в метрах или километрах. При видимости от 1 до 10 км при отсутствии осадков обычно наблюдается дымка, при ухудшении видимости до 1 км и менее - туман. В сухую погоду видимость может ухудшаться дымом, пылью или мглою.
Явления - указаны атмосферные явления, наблюдавшиеся в срок или в последний час перед сроком; фигурными скобками обозначены явления, наблюдавшиеся между сроками (за 1-3 часа до срока); квадратными скобками обозначены град или гололедные отложения с указанием их диаметра в мм.
Облачность - указаны через наклонную черту общая и нижняя облачность в баллах и высота нижней границы облаков в метрах; квадратными скобками обозначены формы облаков: Ci - перистые, Cs - перисто-слоистые, Cc - перисто-кучевые, Ac - высококучевые, As - высокослоистые, Sc - слоисто-кучевые, Ns - слоисто-дождевые, Cu - кучевые, Cb - кучево-дождевые. Подробнее классификацию облаков см. в Атласе облаков (PDF).
T - Температура воздуха - температура, измеренная на высоте 2 м над землей.
Td - Температура точки росы - температура, при понижении до которой содержащийся в воздухе водяной пар достигнет насыщения.
f - Относительная влажность воздуха - влажноcть воздуха, измеренная на высоте 2 м над землей.
Te - Эффективная температура - температура, которую ощущает одетый по сезону человек в тени. Характеристика душности погоды. При расчете учитывается влияние влажности воздуха и скорости ветра на теплоощущения человека.
Tes - Эффективная температура на солнце - температура, которую ощущает человек, с поправкой на солнечный нагрев. Характеристика знойности погоды. Зависит от высоты солнца над горизонтом, облачности и скорости ветра. Ночью, в пасмурную погоду, а также при ветре 12 м/с и более поправка равна нулю.
P - Атмосферное давление - приведенное к уровню моря атмосферное давление.
Po - Атмосферное давление - измеренное на уровне метеостанции атмосферное давление.
Tmin - Минимальная температура - минимум температуры воздуха на высоте 2 м над землей.
Tmax - Максимальная температура - максимум температуры воздуха на высоте 2 м над землей.
R - Количество осадков - Количество выпавших осадков за период времени, мм. При наведении курсора мыши на число - период времени, за который выпало указанное количество осадков.
R24 - Количество осадков - Количество выпавших осадков за 24 часа, мм.
S - Снежный покров - Высота снежного покрова, см. При наведении курсора мыши на число - состояние снежного покрова и степень покрытия местности в баллах.